Location: Buckeye Ditch
(40.9104°N, 122.9517°W)
Time: 22:33:30
(UTC+00:00)

Transit 2A - Pass Details

Date: 28 May 2025
Orbit: 599 x 947 km, 66.7° (Epoch: 20 June)

Event Time Altitude Azimuth Distance (km) Brightness Sun altitude
Rises 13:50:56 0° 236° (SW) 2,991 8.4 10.6°
Reaches altitude 10° 13:53:34 10° 248° (WSW) 2,035 7.6 11.1°
Maximum altitude 13:57:30 28° 308° (NW) 1,166 6.8 11.8°
Drops below altitude 10° 14:01:17 10° 8° (N) 1,957 8.6 12.5°
Sets 14:03:46 0° 21° (NNE) 2,854 9.6 13.0°
